Wind_Speed
5 6 7 8 10 12 13 15 17 18 17 19 20 20 20 20 19 21 21 22 22 22 22 22 21 21 22 23 23 23 23 24 24 24 25 25 26 26 26 26 26 26 26 27
5 7 8 10 12 13 14 15 16 16 17 18 20 20 20 20 19 21 22 22 22 23 22 21 21 21 21 22 23 23 23 24 24 25 25 26 26 26 26 26 27 27 27 28
5 8 10 11 14 15 14 14 15 17 17 18 20 21 20 20 21 22 21 22 22 22 22 22 22 22 21 22 22 23 23 24 24 25 25 26 27 27 27 27 28 28 28 28
8 10 12 13 13 14 14 15 16 17 17 17 18 21 19 20 22 21 21 21 20 19 21 22 23 22 22 22 23 24 24 24 24 25 26 27 27 28 28 29 29 28 27 27
8 11 12 12 13 14 15 13 15 17 16 17 18 21 19 19 21 21 21 21 20 20 20 22 22 22 23 23 24 24 24 24 25 26 27 27 28 28 28 28 28 27 27 27
10 12 13 13 15 15 15 14 14 15 15 18 18 20 19 19 21 21 20 20 21 21 22 23 23 23 23 24 24 24 24 25 26 26 27 28 28 28 27 26 26 27 27 26
11 12 13 14 15 14 15 14 14 15 16 19 18 19 20 19 20 22 21 21 22 23 23 23 24 23 23 23 24 24 24 25 25 26 26 25 25 26 26 26 27 27 26 26
12 14 14 14 15 14 14 14 16 18 17 18 19 19 19 19 20 21 22 22 22 22 23 23 23 23 23 24 24 24 25 25 25 25 25 25 25 25 25 26 26 26 26 26
13 14 14 14 14 14 13 15 16 19 18 18 17 18 18 20 21 21 21 21 21 21 22 22 22 22 22 23 24 24 24 24 24 24 24 26 25 25 25 26 25 25 24 25
14 16 15 15 15 14 13 15 15 16 17 18 16 16 18 18 20 20 21 20 21 22 22 22 22 21 21 22 23 23 22 22 22 23 24 25 25 25 24 25 25 24 24 24
15 15 14 15 14 12 13 15 15 16 17 18 17 18 19 20 20 19 20 21 22 22 23 22 22 21 20 20 21 21 21 22 22 23 23 23 23 23 23 23 24 24 24 24
16 15 14 14 13 13 14 15 15 17 17 17 18 19 20 21 21 21 22 21 21 22 22 21 21 20 19 19 20 20 21 21 22 22 22 22 21 21 22 22 23 23 23 23
17 16 14 13 13 13 14 14 14 16 17 17 19 19 20 21 22 22 22 22 22 22 21 20 21 20 19 18 18 19 19 20 21 22 22 21 21 21 21 20 20 20 20 19
18 17 16 14 13 14 15 14 14 16 18 19 20 20 20 20 21 22 22 21 21 20 20 20 21 20 18 16 17 18 18 20 20 20 20 20 20 20 19 18 19 19 19 19
18 18 17 15 14 15 15 15 16 17 17 19 21 23 23 21 22 21 20 20 19 19 19 19 19 19 17 17 16 18 18 19 19 19 19 18 18 18 18 17 18 18 17 17
19 18 17 16 15 15 14 14 16 17 17 19 21 22 21 20 22 21 20 20 19 19 19 18 18 17 17 17 16 17 18 18 18 18 17 17 17 17 16 16 16 17 16 17
19 19 18 16 14 15 14 14 16 17 17 19 20 20 19 19 19 19 18 17 17 18 18 18 16 16 16 16 16 16 16 16 17 17 16 16 15 15 15 15 16 16 17 17
18 17 18 17 15 16 15 16 17 17 17 18 19 20 19 18 18 17 17 17 17 17 16 15 15 15 15 15 14 15 15 15 16 16 15 14 14 15 15 15 16 17 17 18
20 19 18 18 16 16 16 17 16 17 16 17 18 17 17 17 17 16 16 16 16 16 16 15 14 13 13 13 13 14 15 15 14 14 14 14 14 15 15 15 16 17 17 17
20 20 20 19 19 19 17 17 16 16 16 16 16 17 17 16 16 15 15 16 15 14 13 13 12 12 11 12 12 13 13 13 12 12 13 13 14 14 14 15 16 17 17 17
20 20 20 20 19 19 17 16 16 16 15 15 16 16 16 16 16 15 14 14 14 13 12 11 10 10 11 10 10 11 11 11 10 11 12 13 14 14 14 15 16 16 17 17
20 20 20 19 19 19 19 18 17 16 16 16 16 16 16 15 15 14 13 12 12 11 11 10 9 9 9 9 9 10 10 10 10 10 11 12 13 13 14 15 16 16 17 17
21 21 22 20 19 19 19 19 16 16 16 16 16 15 15 15 13 12 11 11 11 10 10 8 7 7 8 8 8 9 9 9 9 10 10 12 12 12 13 14 15 16 16 17
21 21 21 20 20 20 19 17 17 16 16 16 16 15 14 13 12 11 10 10 9 9 8 7 7 6 7 7 8 8 8 8 9 9 10 11 11 12 13 14 15 15 15 16
21 20 20 19 20 19 17 16 16 16 16 16 15 13 12 11 10 10 9 8 8 7 7 7 6 5 6 6 7 8 7 7 8 9 9 10 11 12 13 14 15 15 16 17
21 20 19 17 18 18 16 15 15 15 14 13 12 11 10 9 9 8 7 7 6 6 6 5 5 5 5 6 7 6 6 6 7 8 9 11 11 12 13 14 14 15 16 16
Wind_Direction
232 241 243 246 245 244 247 249 248 253 252 258 264 271 274 278 275 281 284 283 282 283 280 280 280 279 282 284 287 288 289 290 293 295 296 296 295 293 293 294 294 293 293 294
248 266 248 250 255 252 253 252 255 255 257 257 266 272 275 276 279 285 287 284 281 281 279 279 280 282 284 286 287 289 293 293 293 296 295 296 296 295 293 294 293 294 293 293
248 257 255 258 261 257 256 257 256 257 259 265 270 275 274 277 280 283 285 284 281 279 277 279 282 281 283 287 289 292 295 296 295 296 295 295 296 295 294 294 295 294 294 295
259 262 261 262 264 260 257 256 260 262 264 266 267 271 271 273 274 279 281 283 282 278 277 279 283 281 283 286 289 292 295 296 297 297 297 297 296 297 296 297 297 295 295 295
261 269 270 266 268 266 262 257 260 263 266 267 264 268 272 276 273 277 279 281 281 281 285 283 285 282 283 285 289 292 295 296 298 299 299 299 298 298 297 299 299 295 296 297
264 268 269 266 267 269 267 262 263 266 272 272 270 270 273 269 272 274 276 275 276 282 284 284 285 286 287 287 290 291 295 296 297 298 298 299 296 297 296 298 300 298 297 298
274 274 276 275 271 268 269 267 270 270 270 274 274 270 274 268 274 279 275 275 278 284 286 284 284 287 287 288 290 292 294 296 297 299 300 301 298 297 298 300 300 300 298 299
283 283 276 272 271 269 267 266 269 272 270 274 277 276 277 276 275 275 274 279 283 282 284 286 286 287 285 286 289 292 295 297 298 300 301 302 302 300 300 302 303 303 303 302
277 275 274 270 275 273 269 262 261 266 268 272 277 283 277 279 279 278 279 282 285 282 284 285 285 287 287 288 291 293 295 298 300 302 303 303 303 303 302 303 305 305 307 306
267 267 267 275 276 271 271 274 270 270 275 276 273 275 275 272 277 281 282 283 287 286 284 286 286 287 289 289 290 292 295 299 302 304 306 306 305 303 302 302 304 305 308 308
262 269 272 272 272 267 275 276 275 276 278 280 280 280 280 277 279 281 281 284 289 290 287 286 288 289 288 288 290 294 296 300 303 307 309 309 306 305 303 302 304 305 307 308
270 273 272 274 272 265 263 265 270 277 279 275 280 281 283 286 289 286 285 286 290 291 290 289 288 289 291 291 292 296 299 301 303 306 309 308 307 308 309 308 308 308 307 309
268 268 271 273 273 266 262 263 269 274 278 275 275 280 279 282 287 287 288 291 293 293 291 290 289 288 290 292 295 298 300 301 303 306 308 309 311 312 312 312 312 313 313 312
266 265 271 271 271 269 272 271 271 271 275 277 276 278 278 278 285 287 288 291 291 292 290 289 288 289 290 293 295 297 301 304 305 306 308 309 310 314 315 315 315 315 315 316
267 271 274 273 268 265 272 275 277 278 280 279 279 278 278 280 286 291 291 292 294 294 291 289 288 288 288 293 295 297 301 303 304 305 309 310 313 316 317 318 320 321 323 324
269 273 277 278 280 281 279 275 277 279 280 279 282 280 284 286 290 293 294 293 293 295 296 292 288 288 291 294 296 297 301 303 304 306 311 313 316 318 320 319 322 325 326 327
266 274 281 282 280 278 276 277 277 278 280 280 281 284 284 286 288 290 292 294 295 296 296 294 291 292 293 295 297 298 300 303 306 310 313 316 318 322 323 323 324 325 325 325
266 271 277 280 278 279 279 276 279 280 282 280 281 284 284 288 287 287 291 294 296 296 299 298 296 292 293 296 298 300 302 304 307 310 313 317 320 323 324 325 326 328 328 328
271 274 276 282 283 279 277 276 278 281 284 283 286 288 291 291 288 290 294 297 298 297 300 301 298 293 290 296 301 301 302 303 305 310 314 316 319 320 323 325 328 331 330 329
269 272 272 275 278 281 279 277 277 284 286 285 288 289 289 290 291 294 295 296 298 299 301 302 297 295 294 299 302 301 304 306 307 310 316 319 321 323 326 328 330 333 334 333
264 268 269 271 275 278 279 282 285 284 284 287 288 287 288 288 292 294 294 297 299 300 301 301 296 294 300 305 304 305 310 312 311 313 317 319 323 326 328 329 332 334 336 337
262 264 267 270 270 272 273 276 278 282 281 284 284 286 289 288 288 292 294 295 295 297 299 299 297 296 305 309 309 314 317 317 318 320 322 324 324 325 328 331 334 336 337 337
257 261 267 270 272 273 271 273 278 281 280 282 282 284 287 287 288 289 291 292 292 292 294 295 299 302 309 313 316 322 325 329 333 334 333 332 332 333 335 337 338 338 338 341
253 258 263 266 269 269 267 270 276 275 278 281 282 283 284 283 283 285 288 289 289 286 283 288 301 311 320 321 320 323 326 334 340 341 342 343 343 342 342 341 342 342 342 343
248 251 254 263 266 267 266 270 273 274 276 277 276 277 278 278 280 283 286 288 285 282 282 284 293 310 315 316 320 326 331 337 342 345 347 347 347 347 345 345 345 345 345 346
246 249 250 258 264 264 267 270 275 280 280 277 273 270 270 273 280 284 285 286 277 276 278 282 287 302 316 326 330 333 335 341 348 351 351 349 346 347 349 349 349 349 349 348
Height
5843 5846 5847 5849 5850 5851 5852 5853 5854 5855 5854 5854 5854 5853 5853 5852 5852 5852 5851 5850 5849 5848 5848 5847 5847 5847 5846 5846 5845 5844 5843 5841 5840 5838 5837 5835 5833 5831 5829 5827 5825 5823 5820 5818
5844 5845 5846 5847 5847 5848 5848 5849 5850 5851 5850 5850 5850 5850 5850 5849 5847 5848 5848 5846 5845 5845 5843 5842 5842 5842 5842 5841 5840 5839 5838 5836 5835 5833 5832 5830 5827 5825 5823 5821 5819 5817 5814 5812
5844 5846 5845 5845 5846 5845 5845 5846 5847 5847 5847 5847 5847 5847 5846 5845 5845 5844 5844 5842 5841 5840 5839 5839 5838 5836 5837 5836 5836 5835 5833 5831 5830 5828 5826 5824 5822 5820 5817 5815 5813 5810 5808 5805
5843 5844 5843 5843 5843 5843 5844 5844 5844 5843 5843 5844 5845 5843 5843 5842 5841 5840 5839 5838 5837 5835 5835 5834 5833 5832 5832 5832 5831 5830 5828 5827 5825 5823 5821 5818 5816 5814 5811 5809 5807 5804 5801 5799
5842 5842 5841 5841 5842 5841 5840 5839 5840 5840 5840 5840 5840 5839 5840 5839 5836 5835 5834 5833 5832 5830 5830 5830 5829 5828 5827 5827 5827 5825 5824 5822 5820 5817 5815 5812 5809 5807 5805 5803 5800 5798 5795 5793
5839 5839 5839 5839 5838 5838 5837 5836 5836 5836 5836 5836 5836 5836 5836 5836 5833 5831 5830 5830 5828 5827 5827 5826 5825 5824 5823 5823 5821 5820 5819 5817 5815 5812 5809 5805 5803 5801 5799 5797 5794 5792 5789 5787
5836 5837 5836 5835 5834 5834 5834 5834 5834 5834 5834 5833 5832 5830 5831 5829 5829 5828 5827 5826 5825 5825 5823 5822 5821 5820 5819 5818 5817 5815 5814 5812 5810 5807 5803 5799 5797 5796 5793 5791 5788 5785 5783 5780
5834 5835 5833 5832 5831 5831 5831 5832 5832 5831 5830 5829 5828 5826 5827 5826 5824 5823 5823 5822 5821 5820 5819 5818 5817 5816 5815 5813 5812 5811 5809 5807 5805 5802 5799 5796 5794 5791 5788 5786 5783 5780 5777 5775
5831 5831 5830 5829 5828 5828 5828 5828 5828 5827 5825 5825 5825 5823 5821 5820 5819 5819 5819 5818 5817 5816 5815 5814 5812 5811 5810 5809 5808 5806 5804 5802 5800 5797 5795 5792 5789 5786 5783 5781 5778 5774 5772 5769
5827 5826 5827 5826 5826 5825 5825 5824 5824 5822 5821 5820 5820 5820 5817 5815 5815 5815 5815 5814 5813 5812 5811 5810 5808 5807 5805 5804 5803 5801 5799 5797 5795 5792 5789 5786 5783 5781 5778 5775 5773 5770 5767 5765
5822 5822 5823 5823 5822 5822 5822 5821 5819 5818 5818 5817 5816 5817 5813 5812 5811 5811 5810 5809 5808 5807 5806 5805 5804 5802 5801 5799 5798 5796 5795 5792 5790 5787 5785 5781 5779 5776 5773 5771 5768 5765 5762 5760
5819 5819 5819 5819 5819 5818 5818 5817 5817 5816 5814 5814 5812 5814 5809 5807 5807 5806 5805 5804 5803 5802 5801 5799 5798 5797 5796 5795 5794 5792 5790 5788 5786 5783 5781 5777 5774 5772 5769 5766 5763 5761 5758 5755
5815 5815 5815 5815 5817 5815 5813 5813 5813 5812 5810 5809 5809 5810 5805 5803 5802 5800 5799 5798 5798 5797 5796 5795 5793 5792 5791 5790 5789 5788 5786 5784 5781 5779 5777 5773 5770 5767 5764 5761 5759 5756 5753 5750
5810 5810 5811 5811 5810 5809 5809 5809 5808 5808 5807 5805 5804 5803 5801 5799 5798 5796 5795 5794 5793 5793 5792 5790 5788 5787 5786 5785 5785 5784 5782 5780 5777 5775 5773 5770 5767 5764 5761 5758 5755 5753 5750 5747
5806 5806 5806 5806 5806 5804 5805 5804 5805 5804 5803 5802 5801 5799 5796 5793 5793 5792 5791 5790 5788 5788 5787 5785 5784 5783 5782 5781 5780 5779 5778 5776 5774 5771 5769 5766 5763 5760 5758 5755 5752 5750 5747 5744
5802 5802 5802 5802 5802 5801 5801 5801 5801 5800 5799 5798 5796 5794 5792 5789 5788 5788 5787 5786 5785 5783 5782 5781 5780 5779 5778 5777 5776 5775 5774 5772 5770 5768 5765 5762 5760 5758 5755 5753 5750 5747 5744 5742
5798 5798 5798 5798 5798 5797 5797 5797 5796 5796 5794 5793 5792 5790 5788 5787 5786 5785 5784 5783 5781 5779 5778 5777 5776 5775 5775 5773 5772 5771 5770 5769 5767 5765 5762 5760 5757 5755 5753 5750 5748 5745 5742 5739
5793 5794 5794 5794 5794 5793 5795 5793 5792 5791 5790 5788 5787 5785 5784 5783 5783 5782 5781 5779 5777 5776 5774 5772 5772 5772 5771 5769 5768 5768 5767 5765 5764 5762 5759 5757 5755 5753 5751 5748 5746 5743 5740 5737
5789 5789 5789 5789 5789 5789 5790 5788 5788 5787 5786 5784 5783 5782 5780 5779 5779 5778 5776 5775 5774 5772 5771 5769 5768 5768 5767 5766 5765 5764 5763 5762 5761 5759 5757 5755 5753 5751 5749 5746 5744 5741 5738 5735
5785 5785 5786 5785 5785 5784 5785 5783 5783 5784 5782 5780 5779 5778 5777 5775 5774 5774 5773 5771 5770 5769 5768 5766 5765 5765 5764 5763 5762 5762 5761 5759 5758 5757 5755 5753 5751 5749 5747 5744 5742 5739 5736 5733
5780 5781 5781 5780 5780 5780 5779 5778 5779 5780 5779 5777 5775 5774 5773 5772 5771 5770 5769 5768 5767 5766 5765 5764 5763 5762 5762 5761 5760 5759 5758 5757 5756 5754 5753 5751 5750 5747 5745 5743 5740 5737 5734 5731
5775 5775 5776 5775 5776 5777 5775 5775 5775 5775 5773 5772 5771 5770 5769 5768 5768 5767 5766 5765 5764 5763 5762 5762 5761 5760 5760 5759 5759 5758 5757 5755 5754 5752 5751 5749 5748 5745 5743 5741 5738 5736 5733 5730
5770 5771 5771 5771 5773 5772 5771 5770 5770 5769 5769 5768 5767 5765 5765 5765 5764 5764 5763 5762 5762 5761 5760 5760 5759 5759 5758 5758 5757 5756 5755 5754 5752 5751 5749 5748 5746 5744 5742 5739 5737 5734 5731 5728
5764 5764 5765 5766 5767 5766 5766 5766 5766 5766 5765 5764 5763 5762 5761 5761 5761 5761 5760 5760 5759 5759 5758 5758 5758 5758 5757 5757 5756 5755 5754 5753 5752 5750 5748 5746 5744 5743 5741 5738 5736 5733 5730 5727
5758 5759 5760 5761 5762 5761 5761 5761 5761 5761 5760 5760 5759 5759 5758 5758 5758 5758 5757 5757 5757 5757 5757 5757 5757 5757 5756 5755 5755 5754 5753 5752 5751 5749 5748 5746 5744 5742 5740 5737 5734 5732 5729 5725
5751 5753 5755 5756 5757 5757 5757 5757 5757 5756 5755 5755 5755 5755 5756 5756 5755 5755 5754 5754 5755 5755 5755 5755 5755 5755 5755 5754 5753 5752 5752 5751 5750 5749 5747 5745 5744 5741 5739 5736 5734 5731 5728 5725